DW9813 Weather Reports


time (UTC)temp
C
wind
direction
speed
KPH
gust
KPH
rain 1hr
cm
rain 24hr
cm
rain mn
cm
humidity
%
barometer
mb
20260510095039 16 0 1.6 8.0 0.00 0.48 0.46 90 1013.7
20260510094545 16 169 3.2 9.7 0.00 0.48 0.46 90 1013.7
20260510094040 16 151 4.8 9.7 0.00 0.48 0.46 89 1013.7
20260510093541 16 172 3.2 9.7 0.00 0.48 0.46 89 1013.9
20260510093054 16 204 4.8 9.7 0.00 0.48 0.46 89 1013.9
20260510092540 16 161 4.8 12.9 0.00 0.48 0.46 89 1013.8
20260510092039 16 179 8.0 12.9 0.00 0.48 0.46 89 1014.0
20260510091553 16 167 8.0 12.9 0.00 0.48 0.46 88 1013.9
20260510091039 17 198 4.8 8.0 0.00 0.48 0.46 88 1013.8
20260510090545 16 0 0.0 4.8 0.00 0.48 0.46 88 1013.5
20260510090052 16 0 0.0 4.8 0.00 0.48 0.46 88 1013.1
20260510085539 17 0 0.0 8.0 0.00 0.48 0.46 88 1013.0
20260510085044 17 324 3.2 14.5 0.00 0.48 0.46 88 1012.7
20260510084549 17 325 1.6 24.1 0.00 0.48 0.46 88 1012.3
20260510084039 17 323 9.7 29.0 0.00 0.48 0.46 87 1011.7
20260510083538 17 48 16.1 29.0 0.00 0.48 0.46 87 1009.4
20260510083100 17 114 16.1 25.7 0.00 0.48 0.46 87 1008.7
20260510082540 17 119 14.5 24.1 0.03 0.48 0.46 87 1009.8
20260510082040 17 89 14.5 24.1 0.03 0.48 0.46 86 1010.2
20260510081550 17 105 12.9 19.3 0.05 0.48 0.46 87 1010.9
20260510081040 17 84 6.4 19.3 0.25 0.48 0.46 88 1011.3
20260510080539 17 101 4.8 17.7 0.33 0.48 0.46 88 1011.8
20260510080045 17 48 3.2 22.5 0.36 0.48 0.46 87 1011.9
20260510075536 17 67 12.9 22.5 0.36 0.48 0.46 86 1011.4
20260510075042 17 153 14.5 20.9 0.36 0.48 0.46 86 1011.4
20260510074548 17 182 11.3 17.7 0.36 0.48 0.46 86 1012.2
20260510074039 17 190 9.7 16.1 0.38 0.48 0.46 86 1012.7
20260510073539 17 191 8.0 12.9 0.46 0.48 0.46 85 1013.1
20260510073055 17 209 4.8 12.9 0.46 0.48 0.46 87 1013.5
20260510072539 17 205 8.0 17.7 0.43 0.46 0.43 87 1013.6
20260510072037 18 261 6.4 17.7 0.43 0.46 0.43 87 1014.1
20260510071550 18 234 4.8 16.1 0.41 0.43 0.41 86 1014.4
20260510071040 18 178 6.4 17.7 0.20 0.23 0.20 85 1014.9
20260510070540 18 150 8.0 17.7 0.13 0.15 0.13 85 1014.9
20260510070051 18 263 8.0 17.7 0.10 0.13 0.10 85 1015.3
20260510065544 18 215 8.0 20.9 0.10 0.13 0.10 84 1015.0
20260510065039 18 164 6.4 20.9 0.10 0.13 0.10 82 1014.4
20260510064545 18 272 8.0 17.7 0.10 0.13 0.10 79 1014.0
20260510064036 18 30 3.2 16.1 0.08 0.10 0.08 81 1013.7
20260510063540 18 207 8.0 14.5 0.00 0.03 0.00 80 1013.6
20260510063044 17 201 3.2 9.7 0.00 0.03 0.00 79 1013.5
20260510062538 17 0 0.0 0.0 0.00 0.03 0.00 80 1013.4
20260510062043 17 0 0.0 0.0 0.00 0.03 0.00 83 1013.5
20260510061546 17 0 0.0 0.0 0.00 0.03 0.00 84 1013.5
20260510061040 17 0 0.0 0.0 0.00 0.03 0.00 83 1013.5
20260510060541 17 0 0.0 0.0 0.00 0.03 0.00 83 1013.7
20260510060044 17 0 0.0 0.0 0.00 0.03 0.00 82 1014.0
20260510055539 17 0 0.0 0.0 0.00 0.03 0.00 83 1014.1
20260510055039 17 0 0.0 0.0 0.00 0.03 0.00 84 1013.9
20260510054541 17 0 0.0 0.0 0.00 0.03 0.00 84 1013.9
20260510054039 17 0 0.0 0.0 0.00 0.03 0.00 84 1013.8
20260510053540 17 0 0.0 0.0 0.00 0.03 0.00 83 1013.8
20260510053049 18 0 0.0 0.0 0.00 0.03 0.00 83 1013.6
20260510052540 18 0 0.0 0.0 0.00 0.03 0.00 82 1013.6
20260510052039 18 0 0.0 0.0 0.00 0.03 0.00 82 1013.5
20260510051550 18 0 0.0 0.0 0.00 0.03 0.00 81 1013.2
20260510051042 18 0 0.0 0.0 0.00 0.03 0.00 80 1013.1
20260510050542 18 0 0.0 0.0 0.00 0.03 0.00 80 1012.9
20260510050045 18 0 0.0 0.0 0.00 0.03 0.00 81 1012.9
20260510045540 18 0 0.0 0.0 0.00 0.03 0.03 80 1013.0
20260510045040 18 0 0.0 0.0 0.00 0.03 0.03 79 1012.9
20260510044550 18 0 0.0 0.0 0.00 0.03 0.03 79 1012.8
20260510044039 18 0 0.0 0.0 0.00 0.03 0.03 78 1012.9
20260510043539 18 0 0.0 0.0 0.00 0.03 0.03 79 1013.0
20260510043053 18 0 0.0 1.6 0.00 0.03 0.03 78 1013.1
20260510042537 18 0 0.0 3.2 0.00 0.03 0.03 78 1013.2
20260510042040 18 0 0.0 4.8 0.00 0.03 0.03 78 1013.0
20260510041553 18 77 0.0 4.8 0.00 0.03 0.03 76 1012.7
20260510041040 18 77 0.0 1.6 0.00 0.03 0.03 77 1012.5
20260510040541 18 0 0.0 0.0 0.00 0.03 0.03 76 1012.5
20260510040050 18 0 0.0 0.0 0.00 0.03 0.03 76 1012.5
20260510035540 18 0 0.0 1.6 0.00 0.05 0.03 77 1012.4
20260510035051 18 0 0.0 4.8 0.00 0.05 0.03 77 1012.5
20260510034552 18 57 0.0 4.8 0.00 0.05 0.03 76 1012.4
20260510034040 18 0 0.0 3.2 0.00 0.05 0.03 74 1012.3
20260510033541 17 48 0.0 3.2 0.00 0.05 0.03 75 1012.3
20260510033126 17 0 0.0 0.0 0.00 0.05 0.03 78 1012.6
20260510032539 17 0 0.0 0.0 0.00 0.05 0.03 79 1012.8
20260510032039 17 0 0.0 3.2 0.00 0.05 0.03 79 1012.7
20260510031553 17 0 0.0 3.2 0.00 0.05 0.03 79 1012.7
20260510031039 17 0 0.0 1.6 0.00 0.05 0.03 78 1012.3
20260510030536 17 0 0.0 1.6 0.00 0.05 0.03 79 1012.3
20260510030056 18 0 0.0 0.0 0.00 0.05 0.03 78 1012.0
20260510025540 18 0 0.0 0.0 0.00 0.10 0.03 77 1011.8
20260510025039 18 0 0.0 0.0 0.00 0.10 0.03 74 1011.7
20260510024548 18 0 0.0 0.0 0.00 0.10 0.03 74 1011.5
20260510024040 19 0 0.0 0.0 0.00 0.10 0.03 73 1011.3
20260510023540 20 0 0.0 0.0 0.00 0.10 0.03 72 1011.2
20260510023055 20 0 0.0 0.0 0.00 0.10 0.03 70 1011.0
20260510022540 20 0 0.0 0.0 0.00 0.10 0.03 67 1010.9
20260510022040 21 0 0.0 0.0 0.00 0.10 0.03 66 1010.8
20260510021557 21 0 0.0 0.0 0.00 0.10 0.03 67 1010.9
20260510021041 21 0 0.0 0.0 0.00 0.10 0.03 66 1010.9
20260510020540 22 0 0.0 0.0 0.00 0.10 0.03 66 1010.9
20260510020044 22 0 0.0 0.0 0.00 0.10 0.03 65 1010.6
20260510015540 22 0 0.0 0.0 0.00 0.23 0.03 62 1010.6
20260510015039 23 0 0.0 1.6 0.00 0.23 0.03 58 1010.4
20260510014553 23 0 0.0 1.6 0.00 0.23 0.03 56 1010.4
20260510014039 23 0 0.0 1.6 0.00 0.23 0.03 55 1010.4
20260510013541 23 0 0.0 1.6 0.00 0.23 0.03 54 1010.4
20260510013049 23 0 0.0 1.6 0.00 0.23 0.03 53 1010.4
20260510012543 24 0 0.0 1.6 0.00 0.23 0.03 52 1010.3
20260510012039 25 0 0.0 1.6 0.00 0.23 0.03 52 1010.3
20260510011552 25 0 0.0 1.6 0.00 0.23 0.03 52 1010.2
20260510011041 25 0 0.0 3.2 0.00 0.23 0.03 51 1010.2
20260510010540 25 0 0.0 3.2 0.00 0.23 0.03 49 1010.2
20260510010053 25 141 0.0 6.4 0.00 0.23 0.03 49 1010.1
20260510005538 26 103 1.6 6.4 0.00 0.43 0.03 48 1010.1
20260510005039 26 24 1.6 6.4 0.00 0.43 0.03 46 1010.0
20260510004547 26 130 1.6 6.4 0.00 0.43 0.03 46 1009.9
20260510004039 26 130 1.6 4.8 0.00 0.43 0.03 46 1009.9
20260510003541 26 136 0.0 4.8 0.00 0.43 0.03 46 1009.9
20260510003103 27 0 0.0 8.0 0.00 0.43 0.03 46 1009.9
20260510002539 27 138 1.6 8.0 0.00 0.43 0.03 46 1009.9
20260510002039 27 163 1.6 9.7 0.00 0.43 0.03 45 1009.9
20260510001549 27 117 3.2 9.7 0.00 0.43 0.03 44 1009.8
20260510001040 27 136 3.2 9.7 0.00 0.43 0.03 44 1009.8
20260510000539 27 156 4.8 9.7 0.00 0.43 0.03 43 1009.8
20260510000054 27 119 3.2 6.4 0.00 0.43 0.03 43 1009.9
20260509235539 27 155 3.2 9.7 0.00 0.43 0.03 42 1009.9
20260509235036 27 145 3.2 11.3 0.00 0.43 0.03 43 1010.0
20260509234554 27 148 4.8 14.5 0.00 0.43 0.03 41 1010.0
20260509234039 27 140 6.4 14.5 0.00 0.43 0.03 39 1010.0
20260509233542 28 121 8.0 12.9 0.00 0.43 0.03 38 1010.0
20260509233051 28 158 3.2 11.3 0.00 0.43 0.03 44 1010.1
20260509232544 28 134 4.8 12.9 0.00 0.43 0.03 40 1010.1
20260509232040 28 161 4.8 12.9 0.00 0.43 0.03 40 1010.2
20260509231545 28 134 4.8 11.3 0.00 0.43 0.03 39 1010.2
20260509231039 28 167 3.2 11.3 0.00 0.43 0.03 38 1010.2
20260509230539 28 131 4.8 11.3 0.00 0.43 0.03 38 1010.3
20260509230053 28 107 4.8 11.3 0.00 0.43 0.03 35 1010.2
20260509225540 28 126 4.8 14.5 0.00 0.43 0.03 34 1010.2
20260509225039 28 102 4.8 14.5 0.00 0.43 0.03 34 1010.3
20260509224556 28 169 6.4 12.9 0.00 0.43 0.03 33 1010.3
20260509224041 29 105 3.2 11.3 0.00 0.43 0.03 32 1010.2
20260509223539 29 169 4.8 11.3 0.00 0.43 0.03 33 1010.3
20260509223053 28 194 3.2 11.3 0.00 0.43 0.03 33 1010.2
20260509222539 28 155 4.8 11.3 0.00 0.43 0.03 32 1010.3
20260509222039 28 0 1.6 6.4 0.00 0.43 0.03 32 1010.3
20260509221555 28 131 0.0 16.1 0.00 0.43 0.03 32 1010.3
20260509221039 28 329 1.6 16.1 0.00 0.43 0.03 34 1010.3
20260509220539 28 111 4.8 14.5 0.00 0.43 0.03 31 1010.3
20260509220049 28 109 4.8 9.7 0.00 0.43 0.03 30 1010.3
20260509215540 28 63 3.2 12.9 0.00 0.43 0.03 31 1010.3
20260509215040 28 56 6.4 12.9 0.00 0.43 0.03 29 1010.3
20260509214555 28 83 3.2 14.5 0.00 0.43 0.03 33 1010.2
20260509214040 28 85 4.8 14.5 0.00 0.43 0.03 31 1010.3
20260509213540 28 134 6.4 14.5 0.00 0.43 0.03 30 1010.4
20260509213057 28 103 6.4 14.5 0.00 0.43 0.03 29 1010.4
20260509212539 28 84 4.8 14.5 0.00 0.43 0.03 30 1010.6
20260509212039 28 44 6.4 14.5 0.00 0.43 0.03 29 1010.7
20260509211544 28 120 6.4 14.5 0.00 0.43 0.03 32 1010.7
20260509211040 28 126 3.2 9.7 0.00 0.43 0.03 33 1010.7
20260509210537 28 109 1.6 14.5 0.00 0.43 0.03 36 1010.8
20260509210058 28 0 1.6 16.1 0.00 0.43 0.03 37 1010.8
20260509205539 28 162 8.0 16.1 0.00 0.43 0.03 39 1010.9
20260509205039 28 77 6.4 17.7 0.00 0.43 0.03 36 1010.9
20260509204552 28 225 4.8 17.7 0.00 0.43 0.03 41 1011.0
20260509204039 28 138 3.2 12.9 0.00 0.43 0.03 41 1011.1
20260509203539 28 112 6.4 12.9 0.00 0.43 0.03 38 1011.1
20260509203052 28 168 1.6 11.3 0.00 0.43 0.03 37 1011.1
20260509202539 28 109 3.2 12.9 0.00 0.43 0.03 37 1011.1
20260509202037 28 109 3.2 12.9 0.00 0.43 0.03 36 1011.2
20260509201545 28 116 4.8 11.3 0.00 0.43 0.03 35 1011.2
20260509201036 28 126 1.6 11.3 0.00 0.43 0.03 31 1011.2
20260509200536 28 105 4.8 12.9 0.00 0.43 0.03 31 1011.2
20260509200045 28 84 3.2 12.9 0.00 0.43 0.03 36 1011.4
20260509195542 28 40 0.0 8.0 0.00 0.43 0.03 34 1011.5
20260509195042 28 217 1.6 8.0 0.00 0.43 0.03 35 1011.5
20260509194552 28 178 3.2 8.0 0.00 0.43 0.03 36 1011.5
20260509194036 28 144 1.6 8.0 0.00 0.43 0.03 31 1011.7
20260509193540 27 0 1.6 8.0 0.00 0.43 0.03 32 1011.9
20260509193055 27 329 0.0 12.9 0.00 0.43 0.03 35 1011.9
20260509192536 27 125 3.2 12.9 0.00 0.43 0.03 33 1011.9
20260509192036 27 77 3.2 12.9 0.00 0.43 0.03 36 1011.9
20260509191550 27 126 1.6 14.5 0.00 0.43 0.03 38 1012.0
20260509191040 27 69 3.2 14.5 0.00 0.43 0.03 37 1011.9
20260509190540 27 63 4.8 12.9 0.00 0.43 0.03 35 1011.9
20260509190052 27 141 4.8 16.1 0.00 0.43 0.03 36 1011.8
20260509185539 27 103 4.8 16.1 0.00 0.43 0.03 33 1011.8
20260509185039 27 118 6.4 12.9 0.00 0.43 0.03 36 1011.8
20260509184552 27 117 6.4 11.3 0.00 0.43 0.03 37 1011.7
20260509184036 26 166 3.2 11.3 0.00 0.43 0.03 52 1011.7
20260509183536 26 0 4.8 11.3 0.00 0.43 0.03 50 1011.8
20260509183051 26 234 3.2 11.3 0.00 0.43 0.03 51 1012.0
20260509182539 26 147 3.2 12.9 0.00 0.43 0.03 50 1012.0
20260509182037 26 121 3.2 12.9 0.00 0.43 0.03 47 1012.0
20260509181606 26 115 6.4 12.9 0.00 0.43 0.03 50 1011.9
20260509181037 26 177 0.0 12.9 0.00 0.43 0.03 57 1011.9
20260509180536 26 154 4.8 12.9 0.00 0.43 0.03 56 1012.1
20260509180112 26 113 1.6 8.0 0.00 0.43 0.03 58 1012.0
20260509175536 26 82 4.8 8.0 0.00 0.43 0.03 57 1012.1
20260509175037 26 56 1.6 11.3 0.00 0.43 0.03 59 1012.2
20260509174549 26 233 1.6 11.3 0.00 0.43 0.03 61 1012.2
20260509174040 25 0 0.0 9.7 0.00 0.43 0.03 64 1012.3
20260509173536 25 0 1.6 9.7 0.00 0.43 0.03 61 1012.3
20260509173106 25 195 4.8 9.7 0.00 0.43 0.03 62 1012.4
20260509172537 25 0 0.0 6.4 0.00 0.43 0.03 63 1012.6
20260509172037 25 36 1.6 8.0 0.00 0.43 0.03 60 1012.7
20260509171551 25 21 3.2 8.0 0.00 0.43 0.03 62 1012.6
20260509171038 25 30 1.6 9.7 0.00 0.43 0.03 62 1012.8
20260509170536 25 102 1.6 9.7 0.00 0.43 0.03 62 1012.7
20260509170051 24 71 3.2 9.7 0.00 0.43 0.03 65 1012.8
20260509165536 24 202 3.2 8.0 0.00 0.43 0.03 66 1012.7
20260509165037 24 113 1.6 6.4 0.00 0.43 0.03 72 1012.8
20260509164547 23 0 0.0 6.4 0.00 0.43 0.03 72 1012.7
20260509164039 23 312 3.2 4.8 0.00 0.43 0.03 72 1012.8
20260509163536 23 331 0.0 9.7 0.00 0.43 0.03 71 1012.7
20260509163048 23 102 1.6 9.7 0.00 0.43 0.03 72 1012.6
20260509162537 23 202 3.2 8.0 0.00 0.43 0.03 72 1012.6
20260509162037 23 47 3.2 8.0 0.00 0.43 0.03 75 1012.7
20260509161557 22 133 1.6 6.4 0.00 0.43 0.03 78 1012.7
20260509161037 22 0 0.0 4.8 0.00 0.43 0.03 79 1012.7
20260509160537 22 26 1.6 6.4 0.00 0.43 0.03 78 1012.7
20260509160046 22 297 1.6 8.0 0.00 0.43 0.03 78 1012.8
20260509155538 22 233 1.6 8.0 0.00 0.43 0.03 80 1012.8
20260509155038 22 119 1.6 8.0 0.00 0.43 0.03 78 1012.7
20260509154551 22 0 1.6 8.0 0.00 0.43 0.03 79 1012.7
20260509154038 21 196 1.6 8.0 0.00 0.43 0.03 81 1012.7
20260509153543 21 0 1.6 11.3 0.00 0.43 0.03 81 1012.7
20260509153106 21 180 3.2 11.3 0.00 0.43 0.03 82 1012.6
20260509152538 21 199 3.2 8.0 0.00 0.43 0.03 82 1012.8
20260509152038 21 238 1.6 9.7 0.00 0.43 0.03 83 1012.5
20260509151557 21 216 4.8 9.7 0.00 0.43 0.03 82 1012.7
20260509151037 20 0 1.6 6.4 0.00 0.43 0.03 84 1012.7
20260509150541 20 218 1.6 6.4 0.00 0.43 0.03 83 1012.6
20260509150045 20 198 0.0 9.7 0.00 0.43 0.03 84 1012.7
20260509145538 20 198 4.8 9.7 0.00 0.43 0.03 83 1012.7
20260509145040 19 190 4.8 9.7 0.00 0.43 0.03 86 1012.6
20260509144545 19 175 3.2 9.7 0.00 0.43 0.03 86 1012.6
20260509144037 18 195 3.2 9.7 0.00 0.43 0.03 87 1012.5
20260509143538 18 193 4.8 11.3 0.00 0.43 0.03 87 1012.4
20260509143102 18 168 4.8 11.3 0.00 0.43 0.03 89 1012.5
20260509142538 18 205 3.2 9.7 0.00 0.43 0.03 90 1012.5
20260509142038 18 161 3.2 9.7 0.00 0.43 0.03 91 1012.6
20260509141553 17 144 4.8 8.0 0.00 0.43 0.03 92 1012.7
20260509141039 17 175 1.6 8.0 0.00 0.43 0.03 93 1012.6
20260509140538 17 169 1.6 8.0 0.00 0.43 0.03 93 1012.5
20260509140042 17 178 4.8 8.0 0.00 0.43 0.03 94 1012.4
20260509135538 16 142 0.0 6.4 0.00 0.43 0.03 94 1012.2
20260509135038 16 104 0.0 6.4 0.00 0.43 0.03 95 1012.2
20260509134546 16 115 1.6 6.4 0.00 0.43 0.03 95 1012.3
20260509134038 16 123 0.0 3.2 0.00 0.43 0.03 95 1012.1
20260509133538 15 0 0.0 1.6 0.00 0.43 0.03 95 1011.9
20260509133057 15 0 0.0 1.6 0.00 0.43 0.03 95 1011.9
20260509132538 15 0 0.0 3.2 0.00 0.43 0.03 95 1011.9
20260509132038 15 0 0.0 3.2 0.00 0.43 0.03 95 1011.9
20260509131545 14 247 0.0 3.2 0.00 0.43 0.03 95 1011.8
20260509131037 14 0 0.0 1.6 0.00 0.43 0.03 95 1011.7
20260509130538 13 0 0.0 1.6 0.00 0.43 0.03 95 1011.8
20260509130046 13 0 0.0 1.6 0.00 0.43 0.03 95 1011.8
20260509125537 13 0 0.0 3.2 0.00 0.43 0.03 95 1011.7
20260509125037 13 0 0.0 3.2 0.00 0.43 0.03 95 1011.7
20260509124548 12 0 0.0 3.2 0.00 0.43 0.03 95 1011.7
20260509124038 12 0 0.0 0.0 0.00 0.43 0.03 94 1011.7
20260509123538 12 0 0.0 1.6 0.00 0.43 0.03 94 1011.6
20260509123052 12 0 0.0 1.6 0.00 0.43 0.03 94 1011.6
20260509122538 12 0 0.0 0.0 0.00 0.43 0.03 94 1011.5
20260509122038 12 0 0.0 1.6 0.03 0.43 0.03 94 1011.5
20260509121550 12 0 0.0 1.6 0.03 0.43 0.03 94 1011.4
20260509121038 11 0 0.0 0.0 0.03 0.43 0.03 94 1011.4
20260509120538 12 0 0.0 0.0 0.03 0.43 0.03 94 1011.3
20260509120045 12 0 0.0 0.0 0.03 0.43 0.03 94 1011.3
20260509115537 12 0 0.0 0.0 0.03 0.43 0.03 94 1011.4
20260509115037 12 0 0.0 0.0 0.03 0.43 0.03 94 1011.3
20260509114544 12 0 0.0 0.0 0.03 0.43 0.03 94 1011.2
20260509114038 12 0 0.0 0.0 0.03 0.43 0.03 94 1011.2
20260509113538 12 0 0.0 0.0 0.03 0.43 0.03 94 1011.2
20260509113042 12 0 0.0 0.0 0.03 0.43 0.03 94 1011.2
20260509112537 12 0 0.0 0.0 0.03 0.43 0.03 94 1011.1
20260509112037 12 0 0.0 0.0 0.00 0.41 0.00 94 1011.0
20260509111548 12 0 0.0 0.0 0.00 0.41 0.00 94 1010.9
20260509111038 12 0 0.0 0.0 0.00 0.41 0.00 94 1010.9
20260509110542 12 0 0.0 0.0 0.00 0.41 0.00 94 1010.8
20260509110048 12 0 0.0 0.0 0.00 0.41 0.00 94 1010.8
20260509105538 12 0 0.0 0.0 0.00 0.41 0.00 94 1010.7
20260509105036 12 0 0.0 0.0 0.00 0.41 0.00 94 1010.7
20260509104601 12 0 0.0 0.0 0.00 0.41 0.00 94 1010.8
20260509104038 12 0 0.0 0.0 0.00 0.41 0.00 94 1010.8
20260509103537 12 0 0.0 0.0 0.00 0.41 0.00 94 1010.8
20260509103048 12 0 0.0 0.0 0.00 0.41 0.00 94 1010.8
20260509102539 12 0 0.0 0.0 0.00 0.41 0.00 94 1011.0
20260509102042 12 0 0.0 0.0 0.00 0.41 0.00 94 1010.9
20260509101545 12 0 0.0 0.0 0.00 0.41 0.00 94 1011.0
20260509101038 12 0 0.0 0.0 0.00 0.41 0.00 94 1011.0
20260509100538 12 0 0.0 0.0 0.00 0.41 0.00 94 1010.9
20260509100050 13 0 0.0 0.0 0.00 0.41 0.00 94 1011.0
20260509095537 13 0 0.0 0.0 0.00 0.41 0.00 94 1011.0